When you browse on this site, cookies collect data to enhance your experience and personalize the content and advertising you see.
Visit our Privacy Policy to learn more. By continuing to use the site, you agree to this use of cookies and data.
  • In Österreich
  • Länderverzeichnis
  • Für 7 Tage
  • Wassertemperatur
  • Satellitenkarten
  • Wetterkarte
  • News
  • Widgets
  • user-avatar
    Anmelden

    Stündliche Wetter Victoria

    Heute, 19 Mai, Sonntag

    Zeit Temperatur Niederschläge Wind Luftdruck Luftfeuchtigkeit
    00:00 +12°C° 0 mm 2 m/S 760 mmHg 80%
    01:00 +12°C° 0 mm 2 m/S 760 mmHg 81%
    02:00 +12°C° 0 mm 2 m/S 760 mmHg 81%
    03:00 +12°C° 0 mm 2 m/S 760 mmHg 81%
    04:00 +12°C° 0 mm 2 m/S 759 mmHg 80%
    05:00 +12°C° 0 mm 2 m/S 760 mmHg 79%
    06:00 +10°C° 0 mm 2 m/S 760 mmHg 79%
    07:00 +10°C° 0 mm 2 m/S 760 mmHg 79%
    08:00 +12°C° 0 mm 3 m/S 760 mmHg 75%
    09:00 +13°C° 0 mm 3 m/S 760 mmHg 71%
    10:00 +15°C° 0 mm 4 m/S 760 mmHg 65%
    11:00 +17°C° 0 mm 4 m/S 759 mmHg 62%
    12:00 +18°C° 0 mm 4 m/S 759 mmHg 59%
    13:00 +19°C° 0 mm 3 m/S 758 mmHg 56%
    14:00 +19°C° 0 mm 3 m/S 758 mmHg 57%
    15:00 +19°C° 0 mm 3 m/S 758 mmHg 58%
    16:00 +18°C° 0 mm 2 m/S 757 mmHg 60%
    17:00 +17°C° 0 mm 2 m/S 757 mmHg 64%
    18:00 +15°C° 0 mm 2 m/S 757 mmHg 67%
    19:00 +13°C° 0 mm 3 m/S 758 mmHg 71%
    20:00 +12°C° 0 mm 3 m/S 757 mmHg 72%
    21:00 +12°C° 0 mm 3 m/S 757 mmHg 73%
    22:00 +11°C° 0 mm 3 m/S 757 mmHg 73%
    23:00 +11°C° 0 mm 3 m/S 757 mmHg 75%

    Morgen, 20 Mai, Montag

    Zeit Temperatur Niederschläge Wind Luftdruck Luftfeuchtigkeit
    00:00 +11°C° 0 mm 4 m/S 757 mmHg 77%
    01:00 +11°C° 0 mm 4 m/S 756 mmHg 79%
    02:00 +11°C° 0 mm 4 m/S 756 mmHg 78%
    03:00 +11°C° 0 mm 4 m/S 756 mmHg 78%
    04:00 +10°C° 0 mm 5 m/S 756 mmHg 78%
    05:00 +12°C° 0 mm 5 m/S 756 mmHg 76%
    06:00 +12°C° 0 mm 5 m/S 756 mmHg 73%
    07:00 +13°C° 0 mm 6 m/S 755 mmHg 70%
    08:00 +13°C° 0 mm 6 m/S 755 mmHg 69%
    09:00 +14°C° 0 mm 6 m/S 755 mmHg 67%
    10:00 +15°C° 0 mm 6 m/S 755 mmHg 66%
    11:00 +16°C° 0 mm 6 m/S 755 mmHg 63%
    12:00 +19°C° 0 mm 5 m/S 754 mmHg 59%
    13:00 +21°C° 0 mm 5 m/S 754 mmHg 56%
    14:00 +20°C° 0.5 mm 4 m/S 753 mmHg 62%
    15:00 +19°C° 0.5 mm 3 m/S 753 mmHg 68%
    16:00 +19°C° 0.5 mm 2 m/S 752 mmHg 74%
    17:00 +18°C° 0.1 mm 2 m/S 753 mmHg 76%
    18:00 +17°C° 0.1 mm 2 m/S 753 mmHg 79%
    19:00 +15°C° 0.1 mm 2 m/S 753 mmHg 81%
    20:00 +15°C° 0 mm 2 m/S 753 mmHg 83%
    21:00 +14°C° 0 mm 2 m/S 754 mmHg 84%
    22:00 +14°C° 0 mm 1 m/S 754 mmHg 85%
    23:00 +13°C° 0 mm 1 m/S 754 mmHg 86%

    übermorgen, 21 Mai, Dienstag

    Zeit Temperatur Niederschläge Wind Luftdruck Luftfeuchtigkeit
    00:00 +12°C° 0 mm 1 m/S 754 mmHg 86%
    01:00 +12°C° 0 mm 1 m/S 754 mmHg 86%
    02:00 +10°C° 0 mm 0 m/S 754 mmHg 87%
    03:00 +10°C° 0 mm 0 m/S 754 mmHg 87%
    04:00 +10°C° 0 mm 0 m/S 754 mmHg 88%
    05:00 +10°C° 0 mm 0 m/S 755 mmHg 88%
    06:00 +10°C° 0 mm 0 m/S 755 mmHg 88%
    07:00 +11°C° 0 mm 1 m/S 755 mmHg 89%
    08:00 +12°C° 0 mm 1 m/S 756 mmHg 84%
    09:00 +14°C° 0 mm 1 m/S 756 mmHg 79%
    10:00 +16°C° 0 mm 1 m/S 757 mmHg 74%
    11:00 +18°C° 0 mm 1 m/S 756 mmHg 70%
    12:00 +19°C° 0 mm 1 m/S 756 mmHg 67%
    13:00 +19°C° 0 mm 2 m/S 755 mmHg 63%
    14:00 +19°C° 0 mm 2 m/S 755 mmHg 64%
    15:00 +20°C° 0 mm 1 m/S 755 mmHg 66%
    16:00 +19°C° 0 mm 1 m/S 755 mmHg 68%
    17:00 +18°C° 0 mm 1 m/S 756 mmHg 73%
    18:00 +15°C° 0 mm 1 m/S 756 mmHg 77%
    19:00 +13°C° 0 mm 0 m/S 756 mmHg 82%
    20:00 +13°C° 0 mm 1 m/S 757 mmHg 83%
    21:00 +13°C° 0 mm 1 m/S 757 mmHg 84%
    22:00 +13°C° 0 mm 2 m/S 757 mmHg 85%
    23:00 +12°C° 0 mm 2 m/S 758 mmHg 87%

    22 Mai, Mittwoch

    Zeit Temperatur Niederschläge Wind Luftdruck Luftfeuchtigkeit
    00:00 +12°C° 0 mm 2 m/S 758 mmHg 89%
    01:00 +12°C° 0 mm 2 m/S 758 mmHg 90%
    02:00 +10°C° 0 mm 2 m/S 758 mmHg 91%
    03:00 +10°C° 0 mm 2 m/S 758 mmHg 92%
    04:00 +11°C° 0 mm 1 m/S 758 mmHg 92%
    05:00 +10°C° 0 mm 1 m/S 758 mmHg 92%
    06:00 +10°C° 0 mm 1 m/S 759 mmHg 92%
    07:00 +10°C° 0 mm 1 m/S 759 mmHg 93%
    08:00 +12°C° 0 mm 1 m/S 759 mmHg 87%
    09:00 +13°C° 0 mm 2 m/S 760 mmHg 81%
    10:00 +15°C° 0 mm 2 m/S 760 mmHg 75%
    11:00 +16°C° 0 mm 2 m/S 759 mmHg 69%
    12:00 +18°C° 0 mm 2 m/S 759 mmHg 64%
    13:00 +20°C° 0 mm 1 m/S 759 mmHg 58%
    14:00 +20°C° 0 mm 1 m/S 759 mmHg 59%
    15:00 +21°C° 0 mm 1 m/S 758 mmHg 59%
    16:00 +19°C° 0 mm 0 m/S 758 mmHg 60%
    17:00 +19°C° 0 mm 1 m/S 759 mmHg 65%
    18:00 +16°C° 0 mm 1 m/S 759 mmHg 69%
    19:00 +14°C° 0 mm 1 m/S 759 mmHg 74%
    20:00 +13°C° 0 mm 1 m/S 759 mmHg 77%
    21:00 +13°C° 0 mm 1 m/S 760 mmHg 79%
    22:00 +12°C° 0 mm 2 m/S 760 mmHg 82%
    23:00 +12°C° 0 mm 2 m/S 760 mmHg 83%

    23 Mai, Donnerstag

    Zeit Temperatur Niederschläge Wind Luftdruck Luftfeuchtigkeit
    00:00 +12°C° 0 mm 2 m/S 760 mmHg 85%
    01:00 +10°C° 0 mm 2 m/S 760 mmHg 87%
    02:00 +10°C° 0 mm 2 m/S 759 mmHg 88%
    03:00 +9°C° 0 mm 2 m/S 759 mmHg 88%
    04:00 +9°C° 0 mm 2 m/S 759 mmHg 89%
    05:00 +9°C° 0 mm 2 m/S 759 mmHg 89%
    06:00 +9°C° 0 mm 2 m/S 760 mmHg 89%
    07:00 +8°C° 0 mm 2 m/S 760 mmHg 89%
    08:00 +10°C° 0 mm 2 m/S 760 mmHg 82%
    09:00 +13°C° 0 mm 2 m/S 760 mmHg 75%
    10:00 +14°C° 0 mm 3 m/S 760 mmHg 69%
    11:00 +16°C° 0 mm 3 m/S 759 mmHg 64%
    12:00 +18°C° 0 mm 3 m/S 759 mmHg 59%
    13:00 +19°C° 0 mm 3 m/S 758 mmHg 54%
    14:00 +19°C° 0 mm 3 m/S 758 mmHg 56%
    15:00 +19°C° 0 mm 2 m/S 757 mmHg 57%
    16:00 +19°C° 0 mm 2 m/S 757 mmHg 59%
    17:00 +18°C° 0 mm 2 m/S 757 mmHg 62%
    18:00 +16°C° 0 mm 2 m/S 757 mmHg 65%
    19:00 +13°C° 0 mm 3 m/S 757 mmHg 68%
    20:00 +13°C° 0 mm 3 m/S 757 mmHg 67%
    21:00 +12°C° 0 mm 3 m/S 757 mmHg 66%
    22:00 +12°C° 0 mm 3 m/S 758 mmHg 65%
    23:00 +12°C° 0 mm 3 m/S 757 mmHg 63%

    24 Mai, Freitag

    Zeit Temperatur Niederschläge Wind Luftdruck Luftfeuchtigkeit
    00:00 +12°C° 0 mm 3 m/S 757 mmHg 62%
    01:00 +12°C° 0 mm 3 m/S 757 mmHg 60%
    02:00 +12°C° 0 mm 3 m/S 756 mmHg 62%
    03:00 +11°C° 0 mm 3 m/S 756 mmHg 64%
    04:00 +11°C° 0 mm 3 m/S 756 mmHg 66%
    05:00 +10°C° 0 mm 3 m/S 756 mmHg 68%
    06:00 +10°C° 0 mm 3 m/S 756 mmHg 70%
    07:00 +9°C° 0 mm 3 m/S 756 mmHg 72%
    08:00 +11°C° 0 mm 3 m/S 756 mmHg 69%
    09:00 +12°C° 0 mm 4 m/S 756 mmHg 66%
    10:00 +14°C° 0 mm 4 m/S 756 mmHg 63%
    11:00 +15°C° 0 mm 4 m/S 755 mmHg 60%
    12:00 +18°C° 0 mm 4 m/S 755 mmHg 58%
    13:00 +19°C° 0 mm 4 m/S 754 mmHg 56%
    14:00 +19°C° 0 mm 3 m/S 754 mmHg 58%
    15:00 +20°C° 0 mm 3 m/S 754 mmHg 59%
    16:00 +20°C° 0 mm 2 m/S 753 mmHg 61%
    17:00 +19°C° 0 mm 3 m/S 753 mmHg 62%
    18:00 +17°C° 0 mm 3 m/S 753 mmHg 63%
    19:00 +16°C° 0 mm 3 m/S 754 mmHg 64%
    20:00 +16°C° 0 mm 3 m/S 753 mmHg 64%
    21:00 +16°C° 0 mm 2 m/S 753 mmHg 63%
    22:00 +16°C° 0 mm 2 m/S 753 mmHg 62%
    23:00 +16°C° 0 mm 2 m/S 753 mmHg 63%
    Mehr zeigen